DW6722 Weather Reports


Display with metric or nautical units.
time (UTC)temp
F
wind
direction
speed
MPH
gust
MPH
rain 1hr
in
rain 24hr
in
rain mn
in
humidity
%
barometer
mb
20260505212506 51 332 10.0 15.0 0.00 0.02 0.02 76 1010.0
20260505212004 51 347 11.0 16.0 0.00 0.02 0.02 75 1010.0
20260505211503 51 3 10.0 17.0 0.00 0.02 0.02 75 1009.9
20260505211003 51 336 10.0 17.0 0.00 0.02 0.02 76 1010.0
20260505210503 51 5 11.0 15.0 0.00 0.02 0.02 75 1010.0
20260505210003 51 352 9.0 17.0 0.00 0.02 0.02 75 1010.0
20260505205502 51 1 12.0 17.0 0.00 0.02 0.02 75 1010.0
20260505205001 51 355 10.0 17.0 0.00 0.02 0.02 75 1010.0
20260505204501 51 340 12.0 17.0 0.00 0.02 0.02 75 1010.0
20260505204003 51 343 12.0 17.0 0.00 0.02 0.02 75 1010.1
20260505203502 51 351 12.0 18.0 0.00 0.02 0.02 75 1010.0
20260505203002 51 354 13.0 19.0 0.00 0.02 0.02 75 1010.1
20260505202502 51 359 14.0 19.0 0.00 0.02 0.02 75 1010.1
20260505202002 52 333 12.0 20.0 0.00 0.02 0.02 74 1010.1
20260505201600 52 323 14.0 20.0 0.00 0.02 0.02 74 1010.1
20260505201100 52 333 13.0 19.0 0.00 0.02 0.02 75 1010.1
20260505200601 52 354 13.0 21.0 0.00 0.02 0.02 75 1010.1
20260505200059 52 337 15.0 21.0 0.00 0.02 0.02 74 1010.1
20260505195601 52 344 12.0 17.0 0.00 0.02 0.02 74 1010.0
20260505195059 52 330 11.0 17.0 0.00 0.02 0.02 74 1010.0
20260505194559 52 337 12.0 17.0 0.00 0.02 0.02 74 1010.0
20260505194059 52 351 11.0 19.0 0.00 0.02 0.02 74 1009.9
20260505193558 52 360 14.0 19.0 0.00 0.02 0.02 73 1009.8
20260505193059 52 355 12.0 20.0 0.00 0.02 0.02 74 1009.8
20260505192600 52 351 14.0 20.0 0.00 0.02 0.02 73 1009.7
20260505192100 53 320 12.0 18.0 0.00 0.02 0.02 74 1009.7
20260505191607 53 328 13.0 20.0 0.00 0.02 0.02 74 1009.7
20260505191101 53 351 13.0 22.0 0.00 0.02 0.02 73 1009.6
20260505190558 53 352 15.0 22.0 0.00 0.02 0.02 73 1009.5
20260505190104 53 337 15.0 20.0 0.00 0.02 0.02 73 1009.4
20260505185557 53 1 13.0 21.0 0.00 0.02 0.02 73 1009.4
20260505185057 53 327 14.0 20.0 0.00 0.02 0.02 73 1009.4
20260505184602 53 357 12.0 18.0 0.00 0.02 0.02 73 1009.4
20260505184155 53 347 12.0 19.0 0.00 0.02 0.02 73 1009.3
20260505183555 53 347 15.0 20.0 0.00 0.02 0.02 72 1009.3
20260505183119 54 326 14.0 19.0 0.00 0.02 0.02 71 1009.3
20260505182555 54 338 11.0 20.0 0.00 0.02 0.02 72 1009.3
20260505182056 54 338 15.0 21.0 0.00 0.02 0.02 71 1009.3
20260505181555 54 352 16.0 21.0 0.00 0.02 0.02 70 1009.2
20260505181059 54 358 15.0 20.0 0.00 0.02 0.02 70 1009.2
20260505180554 54 342 15.0 20.0 0.00 0.02 0.02 70 1009.1
20260505180054 54 341 14.0 21.0 0.00 0.02 0.02 71 1009.1
20260505175554 54 330 16.0 23.0 0.00 0.02 0.02 69 1009.1
20260505175054 54 340 18.0 23.0 0.00 0.02 0.02 70 1009.1
20260505174553 54 347 18.0 23.0 0.00 0.02 0.02 69 1009.0
20260505174054 54 345 15.0 22.0 0.00 0.02 0.02 70 1009.1
20260505173554 55 330 17.0 22.0 0.00 0.02 0.02 69 1009.1
20260505173057 55 337 15.0 21.0 0.00 0.02 0.02 69 1009.1
20260505172554 55 326 13.0 22.0 0.00 0.02 0.02 70 1009.1
20260505172052 55 340 16.0 22.0 0.00 0.02 0.02 69 1009.1
20260505171559 55 359 17.0 22.0 0.00 0.02 0.02 69 1009.1
20260505171051 55 352 18.0 22.0 0.00 0.02 0.02 70 1009.1
20260505170550 55 354 15.0 20.0 0.00 0.02 0.02 70 1009.2
20260505170050 55 326 12.0 19.0 0.00 0.02 0.02 70 1009.2
20260505165553 56 328 16.0 19.0 0.00 0.02 0.02 69 1009.2
20260505165049 56 1 14.0 18.0 0.00 0.02 0.02 69 1009.2
20260505164550 56 350 14.0 18.0 0.00 0.02 0.02 69 1009.3
20260505164048 56 358 14.0 18.0 0.00 0.02 0.02 69 1009.3
20260505163547 56 345 11.0 16.0 0.00 0.02 0.02 71 1009.3
20260505163047 56 341 11.0 17.0 0.00 0.02 0.02 70 1009.4
20260505162548 55 6 13.0 17.0 0.00 0.02 0.02 71 1009.3
20260505162046 55 343 12.0 16.0 0.00 0.02 0.02 72 1009.3
20260505161558 55 11 4.0 9.0 0.00 0.02 0.02 75 1009.4
20260505161046 55 11 5.0 12.0 0.00 0.02 0.02 74 1009.5
20260505160545 56 41 8.0 12.0 0.00 0.02 0.02 74 1009.4
20260505153040 55 46 5.0 10.0 0.00 0.02 0.02 76 1009.7
20260505152540 55 37 7.0 10.0 0.00 0.02 0.02 75 1009.7
20260505152039 55 355 6.0 11.0 0.00 0.02 0.02 75 1009.7
20260505151540 55 40 6.0 11.0 0.00 0.02 0.02 75 1009.7
20260505151039 54 30 6.0 13.0 0.00 0.02 0.02 77 1009.8
20260505150539 54 26 8.0 13.0 0.00 0.02 0.02 76 1009.8
20260505140532 53 38 8.0 13.0 0.00 0.02 0.02 78 1010.2
20260505125027 52 1 8.0 15.0 0.00 0.02 0.02 80 1010.7
20260505124525 52 27 11.0 15.0 0.00 0.02 0.02 80 1010.7
20260505124024 52 25 9.0 14.0 0.00 0.02 0.02 80 1010.8
20260505123525 52 16 8.0 12.0 0.00 0.02 0.02 81 1010.8
20260505123025 52 27 8.0 12.0 0.00 0.02 0.02 80 1010.8
20260505122524 52 30 7.0 13.0 0.00 0.02 0.02 81 1010.8
20260505122024 52 27 10.0 14.0 0.00 0.02 0.02 80 1010.8
20260505121529 52 35 8.0 13.0 0.00 0.02 0.02 82 1010.8
20260505121023 52 17 9.0 13.0 0.00 0.02 0.02 81 1010.9
20260505120524 52 34 8.0 12.0 0.00 0.02 0.02 82 1010.9
20260505120051 52 28 7.0 13.0 0.00 0.02 0.02 81 1010.8
20260505115525 52 26 9.0 13.0 0.00 0.02 0.02 82 1010.8
20260505115022 52 25 10.0 13.0 0.00 0.02 0.02 81 1010.8
20260505114522 52 27 10.0 13.0 0.00 0.02 0.02 81 1010.9
20260505114021 52 34 8.0 14.0 0.00 0.02 0.02 82 1010.9
20260505113520 51 27 8.0 15.0 0.00 0.02 0.02 82 1011.0
20260505113020 51 22 11.0 15.0 0.00 0.02 0.02 81 1010.9
20260505112523 51 20 10.0 14.0 0.00 0.02 0.02 82 1011.0
20260505112019 51 33 11.0 14.0 0.00 0.02 0.02 82 1011.0
20260505111520 51 23 10.0 14.0 0.00 0.02 0.02 81 1011.1
20260505111019 51 39 7.0 15.0 0.00 0.02 0.02 83 1011.1
20260505110518 51 30 11.0 16.0 0.00 0.02 0.02 81 1011.0
20260505102019 51 23 8.0 15.0 0.00 0.02 0.02 83 1011.3
20260505101522 50 12 11.0 15.0 0.00 0.02 0.02 82 1011.4
20260505101016 51 30 12.0 17.0 0.00 0.02 0.02 82 1011.3
20260505100517 51 24 11.0 17.0 0.00 0.02 0.02 83 1011.3
20260505100022 50 11 12.0 19.0 0.00 0.02 0.02 82 1011.4
20260505095516 50 23 13.0 19.0 0.00 0.02 0.02 82 1011.4
20260505095019 50 5 10.0 18.0 0.00 0.02 0.02 83 1011.4
20260505094515 50 20 13.0 17.0 0.00 0.02 0.02 83 1011.5
20260505094014 50 13 11.0 16.0 0.00 0.02 0.02 84 1011.5
20260505093514 50 27 11.0 17.0 0.00 0.02 0.02 84 1011.5
20260505093014 50 48 10.0 17.0 0.00 0.02 0.02 85 1011.5
20260505092514 50 357 10.0 14.0 0.00 0.02 0.02 84 1011.5
20260505092014 50 20 11.0 17.0 0.00 0.02 0.02 85 1011.5
20260505091523 50 8 13.0 16.0 0.00 0.02 0.02 85 1011.5
20260505091013 50 32 8.0 14.0 0.00 0.02 0.02 85 1011.7
20260505090513 49 10 9.0 16.0 0.00 0.02 0.02 85 1011.7
20260505090029 49 19 10.0 16.0 0.00 0.02 0.02 85 1011.7
20260505085519 50 24 7.0 13.0 0.00 0.02 0.02 86 1011.8
20260505085012 49 16 8.0 14.0 0.00 0.02 0.02 86 1011.8
20260505084512 49 14 9.0 14.0 0.00 0.02 0.02 86 1011.7
20260505084015 49 12 7.0 15.0 0.00 0.02 0.02 86 1011.7
20260505083512 49 7 10.0 15.0 0.00 0.02 0.02 86 1011.6
20260505083014 49 14 12.0 15.0 0.00 0.02 0.02 86 1011.7
20260505082510 49 30 8.0 15.0 0.00 0.02 0.02 86 1011.6
20260505082011 49 16 10.0 15.0 0.00 0.02 0.02 86 1011.6
20260505081513 49 20 9.0 16.0 0.00 0.02 0.02 86 1011.6
20260505081011 49 25 10.0 15.0 0.00 0.02 0.02 86 1011.6
20260505080509 49 17 11.0 17.0 0.00 0.02 0.02 85 1011.5
20260505080010 49 8 13.0 17.0 0.00 0.02 0.02 86 1011.5
20260505075509 49 15 12.0 14.0 0.00 0.02 0.02 86 1011.5
20260505075007 49 11 9.0 16.0 0.00 0.02 0.02 86 1011.5
20260505074507 49 13 11.0 17.0 0.00 0.02 0.02 86 1011.4
20260505074006 49 17 11.0 17.0 0.00 0.02 0.02 86 1011.4
20260505073505 49 358 13.0 16.0 0.00 0.02 0.02 86 1011.5
20260505073004 49 4 12.0 16.0 0.00 0.02 0.02 87 1011.5
20260505072505 49 341 9.0 14.0 0.00 0.02 0.02 87 1011.6
20260505072002 49 13 9.0 14.0 0.00 0.02 0.02 88 1011.5
20260505071508 49 2 10.0 16.0 0.00 0.02 0.02 88 1011.4
20260505071003 49 19 10.0 15.0 0.00 0.02 0.02 88 1011.4
20260505070502 49 4 12.0 18.0 0.00 0.02 0.02 89 1011.4
20260505070104 49 30 11.0 18.0 0.00 0.02 0.02 89 1011.5
20260505065559 49 9 11.0 17.0 0.00 0.02 0.02 89 1011.5
20260505065058 49 21 10.0 16.0 0.00 0.02 0.02 90 1011.5
20260505064659 49 7 10.0 15.0 0.00 0.02 0.02 90 1011.6
20260505064055 48 3 12.0 15.0 0.00 0.02 0.02 90 1011.7
20260505063555 48 6 10.0 14.0 0.00 0.02 0.02 90 1011.6
20260505063054 48 5 10.0 13.0 0.00 0.02 0.02 90 1011.6
20260505062554 49 26 9.0 13.0 0.00 0.02 0.02 90 1011.6
20260505062053 49 20 9.0 14.0 0.00 0.02 0.02 90 1011.7
20260505061557 49 4 8.0 12.0 0.00 0.02 0.02 90 1011.7
20260505061053 49 356 7.0 12.0 0.00 0.02 0.02 90 1011.7
20260505060551 49 4 9.0 12.0 0.00 0.02 0.02 89 1011.8
20260505060051 49 17 7.0 12.0 0.00 0.02 0.02 89 1011.8
20260505055550 49 1 9.0 14.0 0.00 0.02 0.02 89 1011.7
20260505055050 49 337 10.0 14.0 0.00 0.02 0.02 89 1011.9
20260505054609 49 2 8.0 15.0 0.00 0.02 0.02 89 1011.9
20260505054051 49 10 9.0 15.0 0.00 0.02 0.02 89 1011.9
20260505053550 49 345 9.0 13.0 0.00 0.02 0.02 88 1011.9
20260505053100 49 13 10.0 14.0 0.00 0.02 0.02 88 1011.8
20260505052547 49 12 10.0 15.0 0.00 0.02 0.02 88 1011.9
20260505052047 49 357 10.0 15.0 0.00 0.02 0.02 88 1011.8
20260505051546 50 6 11.0 15.0 0.00 0.02 0.02 88 1011.7
20260505051046 50 4 11.0 14.0 0.00 0.02 0.02 87 1011.7
20260505050544 50 13 9.0 13.0 0.00 0.02 0.02 87 1011.6
20260505041540 51 351 11.0 16.0 0.00 0.02 0.02 86 1011.3
20260505041040 50 8 11.0 17.0 0.00 0.02 0.02 87 1011.2
20260505040542 51 354 13.0 17.0 0.00 0.02 0.02 86 1011.3
20260505040040 50 347 11.0 16.0 0.00 0.02 0.02 86 1011.3
20260505035539 51 354 11.0 18.0 0.00 0.02 0.02 86 1011.3
20260505035040 50 358 14.0 18.0 0.00 0.02 0.02 86 1011.2
20260505034536 50 343 14.0 18.0 0.00 0.02 0.02 86 1011.3
20260505034036 51 359 13.0 18.0 0.00 0.02 0.02 86 1011.4
20260505033536 51 18 11.0 15.0 0.00 0.02 0.02 86 1011.3
20260505033034 51 333 11.0 16.0 0.00 0.02 0.02 86 1011.4
20260505032534 51 5 13.0 17.0 0.00 0.02 0.02 86 1011.5
20260505032033 51 2 12.0 17.0 0.00 0.02 0.02 86 1011.6
20260505031543 51 342 11.0 16.0 0.00 0.02 0.02 86 1011.6
20260505031032 51 342 12.0 19.0 0.00 0.02 0.02 86 1011.6
20260505030532 51 9 12.0 19.0 0.00 0.02 0.02 86 1011.6
20260505030031 51 349 13.0 18.0 0.00 0.02 0.02 85 1011.6
20260505025530 51 4 11.0 19.0 0.00 0.02 0.02 86 1011.6
20260505025030 51 2 13.0 19.0 0.00 0.02 0.02 85 1011.5
20260505024534 51 357 12.0 18.0 0.00 0.02 0.02 85 1011.5
20260505024029 51 354 13.0 20.0 0.00 0.02 0.02 85 1011.5
20260505023529 51 353 15.0 20.0 0.00 0.02 0.02 85 1011.6
20260505023030 51 349 12.0 19.0 0.00 0.02 0.02 86 1011.5
20260505022527 51 345 12.0 19.0 0.00 0.02 0.02 86 1011.5
20260505022027 51 330 13.0 17.0 0.00 0.02 0.02 86 1011.5
20260505021528 51 345 11.0 17.0 0.00 0.02 0.02 86 1011.6
20260505021026 51 342 12.0 17.0 0.00 0.02 0.02 85 1011.5
20260505020526 51 352 12.0 17.0 0.00 0.02 0.02 85 1011.5
20260505020031 52 337 12.0 16.0 0.00 0.02 0.02 85 1011.6
20260505015524 52 340 11.0 17.0 0.00 0.02 0.02 85 1011.5
20260505015024 52 328 12.0 15.0 0.00 0.02 0.02 85 1011.6
20260505014528 52 340 11.0 18.0 0.00 0.02 0.02 85 1011.6
20260505014022 52 360 13.0 18.0 0.00 0.02 0.02 85 1011.6
20260505013521 52 7 12.0 21.0 0.00 0.02 0.02 85 1011.6
20260505013024 52 1 15.0 21.0 0.00 0.02 0.02 85 1011.7
20260505012520 52 356 14.0 21.0 0.00 0.02 0.02 85 1011.7
20260505012019 52 329 15.0 0.0 0.00 0.00 0.02 85 1011.7
20260505011529 52 340 14.0 22.0 0.00 0.02 0.02 85 1011.8
20260505011018 52 355 16.0 22.0 0.00 0.02 0.02 85 1011.8
20260505010516 52 1 15.0 19.0 0.00 0.02 0.02 85 1011.8
20260505010016 52 8 14.0 20.0 0.00 0.02 0.02 85 1011.8
20260505005515 53 354 15.0 20.0 0.00 0.02 0.02 86 1011.8
20260505005015 53 352 13.0 22.0 0.00 0.02 0.02 86 1011.9
20260505004533 53 358 16.0 23.0 0.00 0.02 0.02 86 1011.9
20260505004013 53 340 16.0 21.0 0.00 0.02 0.02 86 1011.9
20260505003511 53 342 16.0 23.0 0.00 0.02 0.02 86 1011.9
20260505003011 53 352 14.0 23.0 0.00 0.02 0.02 86 1012.0
20260505002514 53 333 16.0 23.0 0.00 0.02 0.02 86 1011.9
20260505002017 53 351 16.0 22.0 0.00 0.02 0.02 86 1011.9
20260505001509 53 353 14.0 21.0 0.01 0.02 0.02 86 1012.0
20260505001014 53 322 14.0 21.0 0.02 0.02 0.02 87 1012.0
20260505000508 53 347 17.0 21.0 0.02 0.02 0.02 87 1012.0
20260505000009 53 326 15.0 21.0 0.02 0.02 0.02 87 1012.1
20260504235508 53 351 16.0 21.0 0.02 0.02 0.02 87 1012.2
20260504235006 53 327 15.0 18.0 0.02 0.02 0.02 87 1012.2
20260504234505 53 325 12.0 21.0 0.02 0.02 0.02 88 1012.2
20260504234003 53 347 16.0 21.0 0.02 0.02 0.02 87 1012.2
20260504233503 53 340 16.0 21.0 0.02 0.02 0.02 87 1012.2
20260504233002 53 329 14.0 20.0 0.02 0.02 0.02 87 1012.3
20260504232501 53 354 15.0 20.0 0.02 0.02 0.02 87 1012.3
20260504232000 53 342 14.0 20.0 0.02 0.02 0.02 87 1012.3
20260504231602 54 345 16.0 20.0 0.01 0.02 0.01 86 1012.3
20260504231058 54 353 14.0 18.0 0.00 0.01 0.00 86 1012.3
20260504230558 54 338 14.0 19.0 0.00 0.01 0.00 86 1012.3
20260504230106 54 338 14.0 19.0 0.00 0.01 0.00 86 1012.3
20260504225556 54 339 13.0 17.0 0.00 0.01 0.00 86 1012.3
20260504225055 54 333 12.0 18.0 0.00 0.01 0.00 86 1012.4
20260504224554 54 326 14.0 18.0 0.00 0.01 0.00 86 1012.4
20260504224053 54 339 11.0 18.0 0.00 0.01 0.00 86 1012.5
20260504223553 54 330 13.0 18.0 0.00 0.01 0.00 86 1012.4
20260504223053 54 337 14.0 18.0 0.00 0.01 0.00 86 1012.4
20260504222552 54 1 11.0 18.0 0.00 0.01 0.00 86 1012.5
20260504222050 55 320 14.0 18.0 0.00 0.01 0.00 85 1012.5
20260504221559 55 319 12.0 17.0 0.00 0.01 0.00 85 1012.5
20260504221048 55 354 13.0 17.0 0.00 0.01 0.00 85 1012.6
20260504220547 55 349 12.0 17.0 0.00 0.01 0.00 85 1012.6
20260504220046 55 347 12.0 17.0 0.00 0.01 0.00 85 1012.6
20260504215549 55 336 11.0 16.0 0.00 0.01 0.01 85 1012.7
20260504215049 55 352 11.0 16.0 0.00 0.01 0.01 85 1012.7
20260504214545 55 334 12.0 20.0 0.00 0.01 0.01 85 1012.8
20260504214044 55 342 12.0 20.0 0.00 0.01 0.01 85 1012.8
20260504213544 55 347 11.0 17.0 0.00 0.01 0.01 85 1012.8
20260504213045 55 333 13.0 16.0 0.00 0.01 0.01 85 1012.8